Starlink 32473

operational
NORAD ID: 62049 Int'l Des: 2024-216 Owner: SPXS Country: US Constellation: starlink
LEOCIRCULAR

关于 Starlink 32473

正在加载描述...

实时位置

正在加载3D地球...

即将过境

高度历史

Altitude vs Time

uPlot chart will show altitude changes over time

两行轨道根数

1 62049U 24216T 25352.40620259 .00023451 00000-0 85868-3 0 9994
2 62049 43.0014 355.4323 0001019 250.9137 109.1604 15.27593256 60280
Epoch: Dec 18, 2025 • Age: 31 hours

当前状态

高度 485.1 km
速度 7.62 km/s
星下点 -13.93°S, 151.55°W
发射日期 Nov 21, 2024
运行时间 1 years
类型 internet

技术详情

分类 Payload
质量 730.00 kg
干质量 700.00 kg
总质量 730.00 kg
长度 0.30 m
直径 4.10 m
跨度 29.00 m
形状 Box + pan
制造商 SPXS
平台类型 Starlink V2M
阶段状态 In Orbit
所有者/国家 SPXS/US

大型星座

Loading constellations...